Weather History for Oelwein, IA

Change the Weather History Date:

Friday, May 24, 2013

  Actual Average Record
Temperature  
Mean Temperature 62 °F -  
Max Temperature 68 °F 71 °F 87 °F (1977)
Min Temperature 55 °F 51 °F -99 °F (1999)
Degree Days  
Heating Degree Days 4    
Growing Degree Days 12 (Base 50)    
Moisture  
Dew Point 41 °F    
Average Humidity 47    
Maximum Humidity 77    
Minimum Humidity 32    
Precipitation  
Precipitation 0.05 in - - ()
Sea Level Pressure  
Sea Level Pressure 30.32 in    
Wind  
Wind Speed 11 mph (SSE)    
Max Wind Speed 17 mph    
Max Gust Speed 23 mph    
Visibility 10 miles    
Events Rain    
Averages and records for this station are not official NWS values.
T = Trace of Precipitation, MM = Missing Value Source: NWS Daily Summary

Daily Weather History Graph

Daily Weather History Graph

Search for Another Location

Airport:

Trip Planner

Search our weather history database for the weather conditions in past years. The results will help you decide how hot, cold, wet, or windy it might be!

Date:

Astronomy

May. 24, 2013 Rise Set
Actual Time 5:37 AM CDT 8:32 PM CDT
Civil Twilight 5:03 AM CDT 9:06 PM CDT
Nautical Twilight 4:21 AM CDT 9:48 PM CDT
Astronomical Twilight 3:32 AM CDT 10:38 PM CDT
Moon 8:14 PM CDT (5/24) 5:10 AM CDT (5/24)
Length of Visible Light 16h 02m
Length of Day
14h 55m
Full, 100% of the Moon is Illuminated
May 24
Full
May 24
Full
May 31
Last Quarter
Jun 8
New
Jun 16
First Quarter

Hourly Weather History & Observations

Time (CDT) Temp. Dew Point Humidity Pressure Visibility Wind Dir Wind Speed Gust Speed Precip Events Conditions
10:35 AM 55.4 °F 42.8 °F 63% 30.42 in 10.0 mi SSE 15.0 mph - N/A   Clear
10:55 AM 57.2 °F 42.8 °F 59% 30.42 in 10.0 mi South 10.4 mph - N/A   Clear
11:15 AM 59.0 °F 44.6 °F 59% 30.42 in 10.0 mi South 11.5 mph - N/A   Clear
11:35 AM 57.2 °F 42.8 °F 59% 30.41 in 10.0 mi SSE 9.2 mph 17.3 mph N/A   Clear
11:55 AM 59.0 °F 42.8 °F 55% 30.41 in 10.0 mi SE 10.4 mph - N/A   Clear
12:15 PM 60.8 °F 39.2 °F 45% 30.40 in 10.0 mi SE 9.2 mph 17.3 mph N/A   Clear
12:35 PM 60.8 °F 41.0 °F 48% 30.39 in 10.0 mi SSE 8.1 mph 13.8 mph N/A   Clear
12:55 PM 60.8 °F 41.0 °F 48% 30.38 in 10.0 mi SE 9.2 mph - N/A   Clear
1:15 PM 60.8 °F 39.2 °F 45% 30.36 in 10.0 mi SSE 9.2 mph 17.3 mph N/A   Clear
1:35 PM 62.6 °F 41.0 °F 45% 30.35 in 10.0 mi SSE 11.5 mph 18.4 mph N/A   Clear
1:55 PM 62.6 °F 41.0 °F 45% 30.35 in 10.0 mi SE 10.4 mph 23.0 mph N/A   Clear
2:15 PM 64.4 °F 39.2 °F 40% 30.34 in 10.0 mi SSE 15.0 mph 20.7 mph N/A   Clear
2:35 PM 64.4 °F 39.2 °F 40% 30.33 in 10.0 mi SE 12.7 mph - N/A   Clear
2:55 PM 66.2 °F 39.2 °F 37% 30.32 in 10.0 mi SSE 13.8 mph - N/A   Clear
3:15 PM 66.2 °F 37.4 °F 35% 30.33 in 10.0 mi South 13.8 mph - N/A   Clear
3:35 PM 66.2 °F 37.4 °F 35% 30.32 in 10.0 mi SSE 12.7 mph 20.7 mph N/A   Clear
3:55 PM 66.2 °F 37.4 °F 35% 30.31 in 10.0 mi South 12.7 mph 21.9 mph N/A   Clear
4:15 PM 66.2 °F 37.4 °F 35% 30.30 in 10.0 mi SSE 16.1 mph - N/A   Clear
4:35 PM 66.2 °F 37.4 °F 35% 30.29 in 10.0 mi SSE 10.4 mph 20.7 mph N/A   Clear
4:55 PM 66.2 °F 37.4 °F 35% 30.28 in 10.0 mi SE 11.5 mph 19.6 mph N/A   Clear
5:15 PM 66.2 °F 37.4 °F 35% 30.27 in 10.0 mi SSE 17.3 mph - N/A   Partly Cloudy
5:35 PM 66.2 °F 37.4 °F 35% 30.27 in 10.0 mi SSE 15.0 mph - N/A   Partly Cloudy
5:55 PM 68.0 °F 37.4 °F 33% 30.26 in 10.0 mi South 13.8 mph 20.7 mph N/A   Partly Cloudy
6:15 PM 66.2 °F 37.4 °F 35% 30.27 in 10.0 mi South 17.3 mph - N/A   Partly Cloudy
6:35 PM 66.2 °F 35.6 °F 32% 30.27 in 10.0 mi South 13.8 mph 19.6 mph N/A   Partly Cloudy
6:55 PM 64.4 °F 35.6 °F 34% 30.27 in 10.0 mi SSE 11.5 mph - N/A   Scattered Clouds
7:15 PM 64.4 °F 37.4 °F 37% 30.28 in 10.0 mi South 9.2 mph - N/A   Mostly Cloudy
7:35 PM 64.4 °F 39.2 °F 40% 30.29 in 10.0 mi South 6.9 mph - N/A   Mostly Cloudy
7:55 PM 64.4 °F 41.0 °F 42% 30.31 in 10.0 mi Calm Calm - N/A   Overcast
8:15 PM 64.4 °F 39.2 °F 40% 30.31 in 10.0 mi Calm Calm - N/A   Overcast
8:35 PM 62.6 °F 39.2 °F 42% 30.31 in 10.0 mi Calm Calm - N/A   Overcast
8:55 PM 62.6 °F 44.6 °F 52% 30.32 in 10.0 mi Calm Calm - N/A   Overcast
9:15 PM 62.6 °F 42.8 °F 48% 30.31 in 10.0 mi East 3.5 mph - N/A   Overcast
9:35 PM 60.8 °F 46.4 °F 59% 30.28 in 10.0 mi SSE 8.1 mph - N/A   Overcast
9:55 PM 60.8 °F 44.6 °F 55% 30.29 in 10.0 mi Calm Calm 13.8 mph N/A   Light Drizzle
10:15 PM 59.0 °F 46.4 °F 63% 30.32 in 10.0 mi North 5.8 mph - N/A   Light Drizzle
10:35 PM 59.0 °F 48.2 °F 67% 30.29 in 8.0 mi East 8.1 mph - N/A Rain Light Rain
10:55 PM 57.2 °F 50.0 °F 77% 30.27 in 10.0 mi ESE 8.1 mph - 0.04 in Rain Light Rain
11:15 PM 57.2 °F 48.2 °F 72% 30.25 in 10.0 mi SE 10.4 mph - N/A   Light Drizzle
11:35 PM 57.2 °F 50.0 °F 77% 30.25 in 10.0 mi SE 10.4 mph - N/A   Light Drizzle
11:55 PM 57.2 °F 48.2 °F 72% 30.26 in - SSE 11.5 mph - 0.01 in   Light Drizzle